TimePDT,TemperatureF,Dew PointF,Humidity,Sea Level PressureIn,VisibilityMPH,Wind Direction,Wind SpeedMPH,Gust SpeedMPH,PrecipitationIn,Events,Conditions,WindDirDegrees,DateUTC
12:53 AM,46.0,24.1,42,30.33,10.0,North,6.9,-,N/A,,Clear,360,2012-10-04 07:53:00
1:53 AM,46.9,25.0,42,30.32,10.0,North,8.1,-,N/A,,Clear,360,2012-10-04 08:53:00
2:53 AM,46.9,25.0,42,30.31,10.0,North,9.2,-,N/A,,Clear,350,2012-10-04 09:53:00
3:53 AM,43.0,25.0,49,30.31,10.0,NNW,6.9,-,N/A,,Clear,340,2012-10-04 10:53:00
4:53 AM,44.1,26.1,49,30.31,10.0,North,8.1,-,N/A,,Clear,350,2012-10-04 11:53:00
5:53 AM,44.1,25.0,47,30.32,10.0,NNW,5.8,-,N/A,,Clear,330,2012-10-04 12:53:00
6:53 AM,45.0,23.0,42,30.32,10.0,NNW,9.2,-,N/A,,Clear,340,2012-10-04 13:53:00
7:53 AM,45.0,21.9,40,30.33,9.0,North,8.1,-,N/A,,Clear,360,2012-10-04 14:53:00
8:53 AM,51.1,21.9,32,30.34,7.0,North,10.4,-,N/A,,Clear,350,2012-10-04 15:53:00
9:53 AM,55.0,23.0,29,30.34,7.0,North,8.1,-,N/A,,Clear,350,2012-10-04 16:53:00
10:53 AM,57.9,23.0,26,30.35,9.0,NE,10.4,17.3,N/A,,Clear,40,2012-10-04 17:53:00
11:53 AM,60.1,23.0,24,30.34,8.0,NE,9.2,-,N/A,,Clear,50,2012-10-04 18:53:00
12:53 PM,61.0,21.9,22,30.32,10.0,NNE,9.2,-,N/A,,Clear,30,2012-10-04 19:53:00
1:53 PM,62.1,21.0,21,30.30,10.0,NNW,9.2,-,N/A,,Clear,340,2012-10-04 20:53:00
2:53 PM,63.0,21.0,20,30.29,10.0,NNW,5.8,-,N/A,,Clear,340,2012-10-04 21:53:00
3:53 PM,63.0,21.0,20,30.28,10.0,North,5.8,-,N/A,,Clear,360,2012-10-04 22:53:00
4:53 PM,63.0,19.9,19,30.27,10.0,Calm,Calm,-,N/A,,Clear,0,2012-10-04 23:53:00
5:53 PM,62.1,19.9,20,30.27,10.0,Calm,Calm,-,N/A,,Clear,0,2012-10-05 00:53:00
6:53 PM,53.1,18.0,25,30.28,10.0,Calm,Calm,-,N/A,,Clear,0,2012-10-05 01:53:00
7:53 PM,52.0,18.0,26,30.28,10.0,NW,4.6,-,N/A,,Clear,310,2012-10-05 02:53:00
8:53 PM,51.1,17.1,26,30.28,10.0,NW,6.9,-,N/A,,Clear,310,2012-10-05 03:53:00
9:53 PM,48.9,17.1,28,30.29,10.0,NW,5.8,-,N/A,,Clear,320,2012-10-05 04:53:00
10:53 PM,50.0,17.1,27,30.29,10.0,NW,6.9,-,N/A,,Clear,320,2012-10-05 05:53:00
11:53 PM,44.1,21.9,42,30.32,10.0,NNW,4.6,-,N/A,,Clear,330,2012-10-05 06:53:00